Terminal Aerodrome Forecast
Issued by NWS La Crosse, WI

Home | Current Version | Previous Version | Text Only | Print | Product List | Glossary On
Versions: 1 2 3 4 5 6 7 8 9 10 11 12 13 14 15 16 17 18 19 20 21 22 23 24 25 26 27 28 29 30 31 32 33 34 35 36 37 38 39 40 41 42 43 44 45
000
FTUS43 KARX 222327
TAFLSE
TAF
KLSE 222327Z 2300/2324 VRB03KT P6SM SKC
     FM230930 16003KT 2SM BR BKN002
     FM231100 16003KT 1/4SM FG VV002
     FM231430 18007KT P6SM SKC=

USA.gov is the U.S. government's official web portal to all federal, state and local government web resources and services.